Miscellaneous Local Product
Issued by NWS North Platte, NE

Home | Current Version | Previous Version | Text Only | Print | Product List | Glossary On
Versions: 1 2 3 4 5 6 7 8 9 10 11 12 13 14 15 16 17 18 19 20 21 22 23 24 25 26 27 28 29 30 31 32 33 34 35 36 37 38 39 40 41 42 43 44 45 46 47 48 49 50
315
AXUS43 KLBF 271910
MISLBF


WESTERN AND NORTH CENTRAL NEBRASKA HOURLY WEATHER ROUNDUP
NATIONAL WEATHER SERVICE NORTH PLATTE NE
200 PM CDT WED JUL 27 2016

NOTE: "FAIR" INDICATES FEW OR NO CLOUDS BELOW 12,000 FEET WITH NO
SIGNIFICANT WEATHER AND/OR OBSTRUCTIONS TO VISIBILITY.

NOTE: STATIONS NOT REPORTING VARIABLES SUCH AS SKY/WEATHER OR
PRESSURE ARE PROVIDED BY RAWS AND APRS NETWORKS AND ARE NOT UNDER
NATIONAL WEATHER SERVICE QUALITY CONTROL.

...OBSERVATIONS IN AND NEAR THE EASTERN PANHANDLE OF NEBRASKA...

CITY           SKY/WX    TMP DP  RH WIND       PRES   REMARKS
PINE RIDGE     SUNNY     80  63  55 N6        30.12F
CHADRON        SUNNY     81  59  47 NE15      30.11S
ALLIANCE       SUNNY     85  58  39 VRB5      30.11F
SIDNEY         SUNNY     85  57  38 MISG      30.16F
CRESCENT LAKE    N/A     80  61  52 S6          N/A
$$

...OBSERVATIONS IN NORTHERN NEBRASKA AND FAR SOUTHERN SOUTH DAKOTA...

CITY           SKY/WX    TMP DP  RH WIND       PRES   REMARKS
WINNER         FAIR      85  66  53 NE12G23   30.04S
VALENTINE      PTSUNNY   84  57  39 MISG      30.06F
THEDFORD       PTSUNNY   80  63  55 N8        30.07F
AINSWORTH      MOSUNNY   82  63  52 NE6       30.05F
O`NEILL        SUNNY     83  59  44 CALM      30.05F
ORD            SUNNY     80  61  52 NW5       30.06S
BROKEN BOW     MOSUNNY   79  68  69 SW3       30.08F
VALENTINE NWR    N/A     82  63  52 NE6         N/A
BUTTE            N/A     81  67  61 E7          N/A
HALSEY           N/A     82  61  48 E3G13       N/A
$$

...OBSERVATIONS IN SOUTHWEST NEBRASKA AND FAR NORTHEAST COLORADO...

CITY           SKY/WX    TMP DP  RH WIND       PRES   REMARKS
WRAY           FAIR      86  55  35 E9        30.13S
HOLYOKE        FAIR      86  63  45 W9G16     30.12F
IMPERIAL       SUNNY     83  62  49 E10       30.11F
OGALLALA       MOSUNNY   83  60  45 E7        30.10F
NORTH PLATTE   SUNNY     83  61  47 E18G24    30.03F
MCCOOK         PTSUNNY   80  69  69 E6        30.07F
LEXINGTON      SUNNY     82  68  62 N3        30.07F
STAPLETON        N/A     80  65  61 E5          N/A
GOTHENBURG       N/A     80  62  54 NW8         N/A
CALLAWAY         N/A     78  69  73 N6          N/A
$$

...OBSERVATIONS IN CENTRAL LINCOLN COUNTY AREA...

CITY           SKY/WX    TMP DP  RH WIND       PRES   REMARKS
N.P. AIRPORT   SUNNY     83  61  47 E18G24    30.03F
N.P. DOWNTOWN    N/A     83  61  46 E9G20       N/A
N.P. SOUTHEAST   N/A     83  62  49 NE3G12      N/A
N.P. HILLCREST   N/A     82  60  46 E17G24      N/A
$$

...SOME OBSERVATIONS FROM AROUND THE REGION...

CITY           SKY/WX    TMP DP  RH WIND       PRES   REMARKS
DENVER         MOSUNNY   82  54  37 VRB5      30.20F
LARAMIE        MOSUNNY   84  32  15 NW12G25   30.29F
CHEYENNE       SUNNY     79  50  36 CALM      30.25F
SCOTTSBLUFF    SUNNY     84  55  36 CALM      30.13F
RAPID CITY     PTSUNNY   80  62  54 NE16      30.14R
BISMARCK       CLOUDY    75  63  66 NE10      30.12S
PIERRE         MOSUNNY   86  61  42 NE13      30.03S
SIOUX FALLS    PTSUNNY   82  68  62 N10       30.00S
OMAHA          MOSUNNY   88  67  49 N10       29.97F HX  91
GRAND ISLAND   SUNNY     85  62  46 VRB3      30.05F
KANSAS CITY    CLOUDY    87  70  56 VRB5      29.99F HX  92
WICHITA        MOSUNNY   92  72  51 VRB5      29.99F HX  99
OKLAHOMA CITY  MOSUNNY   90  72  55 CALM      29.96F HX  97
DALLAS         PTSUNNY   93  71  48 CALM      29.91F HX 100
AMARILLO       PTSUNNY   85  61  44 W7        30.09R
DODGE CITY     SUNNY     90  67  46 VRB3      30.05F HX  93
HAYS           SUNNY     86  66  51 SE3       30.03F
GOODLAND       SUNNY     86  62  44 SE12G17   30.11F
$$




USA.gov is the U.S. government's official web portal to all federal, state and local government web resources and services.